User: anonymous   Login
Location: Oshawa
(43.9000°N, 78.8670°W)
Time: 02:44:47
(UTC-04:00)
Language:

Cosmos 1953 Rocket - Orbit

View from above orbital plane
View from above orbital plane
View from above satellite
View from above satellite

Ground track
Ground track

The orbit data is extracted from the following two-line orbital elements,

1 19211U 88050B   18113.93217931 +.00000097 +00000-0 +89298-5 0  9991
2 19211 082.5245 271.7755 0022132 169.6125 304.1176 14.83003699591769
Epoch (UTC): 23 April 2018 22:22:20
Eccentricity: 0.0022132
inclination: 82.5245°
perigee height: 604 km
apogee height: 635 km
right ascension of ascending node: 271.7755°
argument of perigee: 169.6125°
revolutions per day: 14.83003699
mean anomaly at epoch: 304.1176°
orbit number at epoch: 59176

The dashed part of the orbit path shows where the satellite is in the earth's shadow,  

DLR